Location: Arleux
(50.3632°N, 2.8721°E)
Time: 21:47:23
(UTC+00:00)

Radarsat Rocket - Pass Details

Date: 15 December 2019
Orbit: 933 x 1492 km, 100.6° (Epoch: 17 January)

Event Time Altitude Azimuth Distance (km) Brightness Sun altitude
Rises 05:57:53 0° 18° (NNE) 3,710 7.0 -15.5°
Reaches altitude 10° 06:00:15 10° 20° (NNE) 2,805 6.4 -15.1°
Maximum altitude 06:06:33 81° 107° (ESE) 1,116 4.4 -14.2°
Drops below altitude 10° 06:13:40 10° 196° (SSW) 3,143 6.7 -13.1°
Sets 06:16:27 0° 197° (SSW) 4,185 7.4 -12.7°
